Year,Month,Day,Hour,Minute,Value (Times are PST for temperature in C)
2020,04,10,00,00,8.10
2020,04,10,00,01,8.00
2020,04,10,00,02,8.00
2020,04,10,00,03,8.00
2020,04,10,00,04,7.90
2020,04,10,00,05,7.90
2020,04,10,00,06,7.90
2020,04,10,00,07,7.90
2020,04,10,00,08,7.90
2020,04,10,00,09,7.90
2020,04,10,00,10,7.90
2020,04,10,00,11,7.80
2020,04,10,00,12,7.80
2020,04,10,00,13,7.80
2020,04,10,00,14,7.80
2020,04,10,00,15,7.80
2020,04,10,00,16,7.80
2020,04,10,00,17,7.80
2020,04,10,00,18,7.80
2020,04,10,00,19,7.80
2020,04,10,00,20,7.80
2020,04,10,00,21,7.80
2020,04,10,00,22,7.80
2020,04,10,00,23,7.80
2020,04,10,00,24,7.80
2020,04,10,00,25,7.70
2020,04,10,00,26,7.70
2020,04,10,00,27,7.70
2020,04,10,00,28,7.60
2020,04,10,00,29,7.60
2020,04,10,00,30,7.50
2020,04,10,00,31,7.50
2020,04,10,00,32,7.50
2020,04,10,00,33,7.40
2020,04,10,00,34,7.40
2020,04,10,00,35,7.40
2020,04,10,00,36,7.30
2020,04,10,00,37,7.30
2020,04,10,00,38,7.30
2020,04,10,00,39,7.30
2020,04,10,00,40,7.30
2020,04,10,00,41,7.30
2020,04,10,00,42,7.30
2020,04,10,00,43,7.30
2020,04,10,00,44,7.20
2020,04,10,00,45,7.20
2020,04,10,00,46,7.20
2020,04,10,00,47,7.20
2020,04,10,00,48,7.20
2020,04,10,00,49,7.20
2020,04,10,00,50,7.20
2020,04,10,00,51,7.10
2020,04,10,00,52,7.10
2020,04,10,00,53,7.10
2020,04,10,00,54,7.10
2020,04,10,00,55,7.10
2020,04,10,00,56,7.10
2020,04,10,00,57,7.10
2020,04,10,00,58,7.00
2020,04,10,00,59,7.00
2020,04,10,01,00,7.00
2020,04,10,01,01,7.00
2020,04,10,01,02,7.00
2020,04,10,01,03,6.90
2020,04,10,01,04,6.90
2020,04,10,01,05,6.90
2020,04,10,01,06,6.90
2020,04,10,01,07,6.90
2020,04,10,01,08,6.90
2020,04,10,01,09,6.90
2020,04,10,01,10,6.80
2020,04,10,01,11,6.80
2020,04,10,01,12,6.80
2020,04,10,01,13,6.80
2020,04,10,01,14,6.80
2020,04,10,01,15,6.80
2020,04,10,01,16,6.80
2020,04,10,01,17,6.80
2020,04,10,01,18,6.80
2020,04,10,01,19,6.80
2020,04,10,01,20,6.80
2020,04,10,01,21,6.80
2020,04,10,01,22,6.80
2020,04,10,01,23,6.80
2020,04,10,01,24,6.80
2020,04,10,01,25,6.80
2020,04,10,01,26,6.80
2020,04,10,01,27,6.70
2020,04,10,01,28,6.70
2020,04,10,01,29,6.70
2020,04,10,01,30,6.70
2020,04,10,01,31,6.70
2020,04,10,01,32,6.70
2020,04,10,01,33,6.70
2020,04,10,01,34,6.60
2020,04,10,01,35,6.60
2020,04,10,01,36,6.60
2020,04,10,01,37,6.60
2020,04,10,01,38,6.60
2020,04,10,01,39,6.60
2020,04,10,01,40,6.60
2020,04,10,01,41,6.60
2020,04,10,01,42,6.60
2020,04,10,01,43,6.60
2020,04,10,01,44,6.60
2020,04,10,01,45,6.60
2020,04,10,01,46,6.60
2020,04,10,01,47,6.50
2020,04,10,01,48,6.40
2020,04,10,01,49,6.40
2020,04,10,01,50,6.40
2020,04,10,01,51,6.40
2020,04,10,01,52,6.40
2020,04,10,01,53,6.40
2020,04,10,01,54,6.40
2020,04,10,01,55,6.40
2020,04,10,01,56,6.40
2020,04,10,01,57,6.40
2020,04,10,01,58,6.40
2020,04,10,01,59,6.30
2020,04,10,02,00,6.30
2020,04,10,02,01,6.30
2020,04,10,02,02,6.30
2020,04,10,02,03,6.30
2020,04,10,02,04,6.30
2020,04,10,02,05,6.30
2020,04,10,02,06,6.30
2020,04,10,02,07,6.30
2020,04,10,02,08,6.30
2020,04,10,02,09,6.30
2020,04,10,02,10,6.30
2020,04,10,02,11,6.30
2020,04,10,02,12,6.30
2020,04,10,02,13,6.40
2020,04,10,02,14,6.40
2020,04,10,02,15,6.30
2020,04,10,02,16,6.30
2020,04,10,02,17,6.30
2020,04,10,02,18,6.30
2020,04,10,02,19,6.30
2020,04,10,02,20,6.30
2020,04,10,02,21,6.30
2020,04,10,02,22,6.20
2020,04,10,02,23,6.20
2020,04,10,02,24,6.20
2020,04,10,02,25,6.20
2020,04,10,02,26,6.20
2020,04,10,02,27,6.20
2020,04,10,02,28,6.20
2020,04,10,02,29,6.20
2020,04,10,02,30,6.20
2020,04,10,02,31,6.20
2020,04,10,02,32,6.20
2020,04,10,02,33,6.20
2020,04,10,02,34,6.20
2020,04,10,02,35,6.20
2020,04,10,02,36,6.20
2020,04,10,02,37,6.20
2020,04,10,02,38,6.20
2020,04,10,02,39,6.20
2020,04,10,02,40,6.20
2020,04,10,02,41,6.20
2020,04,10,02,42,6.20
2020,04,10,02,43,6.20
2020,04,10,02,44,6.10
2020,04,10,02,45,6.10
2020,04,10,02,46,6.10
2020,04,10,02,47,6.10
2020,04,10,02,48,6.10
2020,04,10,02,49,6.00
2020,04,10,02,50,6.00
2020,04,10,02,51,6.00
2020,04,10,02,52,6.00
2020,04,10,02,53,6.00
2020,04,10,02,54,6.00
2020,04,10,02,55,6.00
2020,04,10,02,56,6.00
2020,04,10,02,57,6.00
2020,04,10,02,58,5.90
2020,04,10,02,59,5.90
2020,04,10,03,00,5.90
2020,04,10,03,01,5.90
2020,04,10,03,02,5.90
2020,04,10,03,03,5.90
2020,04,10,03,04,5.90
2020,04,10,03,05,5.90
2020,04,10,03,06,5.90
2020,04,10,03,07,5.90
2020,04,10,03,08,5.90
2020,04,10,03,09,5.90
2020,04,10,03,10,5.80
2020,04,10,03,11,5.80
2020,04,10,03,12,5.80
2020,04,10,03,13,5.80
2020,04,10,03,14,5.80
2020,04,10,03,15,5.80
2020,04,10,03,16,5.80
2020,04,10,03,17,5.80
2020,04,10,03,18,5.70
2020,04,10,03,19,5.70
2020,04,10,03,20,5.70
2020,04,10,03,21,5.70
2020,04,10,03,22,5.70
2020,04,10,03,23,5.70
2020,04,10,03,24,5.70
2020,04,10,03,25,5.70
2020,04,10,03,26,5.70
2020,04,10,03,27,5.70
2020,04,10,03,28,5.70
2020,04,10,03,29,5.70
2020,04,10,03,30,5.70
2020,04,10,03,31,5.70
2020,04,10,03,32,5.70
2020,04,10,03,33,5.70
2020,04,10,03,34,5.70
2020,04,10,03,35,5.70
2020,04,10,03,36,5.70
2020,04,10,03,37,5.70
2020,04,10,03,38,5.70
2020,04,10,03,39,5.70
2020,04,10,03,40,5.70
2020,04,10,03,41,5.70
2020,04,10,03,42,5.70
2020,04,10,03,43,5.60
2020,04,10,03,44,5.60
2020,04,10,03,45,5.60
2020,04,10,03,46,5.60
2020,04,10,03,47,5.50
2020,04,10,03,48,5.50
2020,04,10,03,49,5.50
2020,04,10,03,50,5.50
2020,04,10,03,51,5.50
2020,04,10,03,52,5.50
2020,04,10,03,53,5.40
2020,04,10,03,54,5.40
2020,04,10,03,55,5.40
2020,04,10,03,56,5.40
2020,04,10,03,57,5.40
2020,04,10,03,58,5.40
2020,04,10,03,59,5.30
2020,04,10,04,00,5.30
2020,04,10,04,01,5.30
2020,04,10,04,02,5.30
2020,04,10,04,03,5.30
2020,04,10,04,04,5.30
2020,04,10,04,05,5.30
2020,04,10,04,06,5.30
2020,04,10,04,07,5.30
2020,04,10,04,08,5.30
2020,04,10,04,09,5.30
2020,04,10,04,10,5.30
2020,04,10,04,11,5.30
2020,04,10,04,12,5.20
2020,04,10,04,13,5.20
2020,04,10,04,14,5.20
2020,04,10,04,15,5.20
2020,04,10,04,16,5.10
2020,04,10,04,17,5.10
2020,04,10,04,18,5.10
2020,04,10,04,19,5.10
2020,04,10,04,20,5.10
2020,04,10,04,21,5.10
2020,04,10,04,22,5.10
2020,04,10,04,23,5.10
2020,04,10,04,24,5.10
2020,04,10,04,25,5.10
2020,04,10,04,26,5.10
2020,04,10,04,27,5.10
2020,04,10,04,28,5.10
2020,04,10,04,29,5.10
2020,04,10,04,30,5.10
2020,04,10,04,31,5.10
2020,04,10,04,32,5.10
2020,04,10,04,33,5.10
2020,04,10,04,34,5.10
2020,04,10,04,35,5.10
2020,04,10,04,36,5.10
2020,04,10,04,37,5.10
2020,04,10,04,38,5.10
2020,04,10,04,39,5.10
2020,04,10,04,40,5.10
2020,04,10,04,41,5.10
2020,04,10,04,42,5.10
2020,04,10,04,43,5.10
2020,04,10,04,44,5.10
2020,04,10,04,45,5.10
2020,04,10,04,46,5.10
2020,04,10,04,47,5.10
2020,04,10,04,48,5.10
2020,04,10,04,49,5.10
2020,04,10,04,50,5.10
2020,04,10,04,51,5.20
2020,04,10,04,52,5.20
2020,04,10,04,53,5.20
2020,04,10,04,54,5.20
2020,04,10,04,55,5.20
2020,04,10,04,56,5.20
2020,04,10,04,57,5.20
2020,04,10,04,58,5.20
2020,04,10,04,59,5.20
2020,04,10,05,00,5.20
2020,04,10,05,01,5.20
2020,04,10,05,02,5.20
2020,04,10,05,03,5.20
2020,04,10,05,04,5.10
2020,04,10,05,05,5.10
2020,04,10,05,06,5.10
2020,04,10,05,07,5.10
2020,04,10,05,08,5.10
2020,04,10,05,09,5.10
2020,04,10,05,10,5.10
2020,04,10,05,11,5.10
2020,04,10,05,12,5.10
2020,04,10,05,13,5.10
2020,04,10,05,14,5.10
2020,04,10,05,15,5.10
2020,04,10,05,16,5.10
2020,04,10,05,17,5.10
2020,04,10,05,18,5.10
2020,04,10,05,19,5.10
2020,04,10,05,20,5.10
2020,04,10,05,21,5.10
2020,04,10,05,22,5.10
2020,04,10,05,23,5.00
2020,04,10,05,24,4.90
2020,04,10,05,25,4.90
2020,04,10,05,26,4.90
2020,04,10,05,27,4.90
2020,04,10,05,28,4.90
2020,04,10,05,29,4.90
2020,04,10,05,30,4.90
2020,04,10,05,31,4.90
2020,04,10,05,32,4.90
2020,04,10,05,33,4.90
2020,04,10,05,34,4.80
2020,04,10,05,35,4.80
2020,04,10,05,36,4.80
2020,04,10,05,37,4.80
2020,04,10,05,38,4.80
2020,04,10,05,39,4.70
2020,04,10,05,40,4.70
2020,04,10,05,41,4.70
2020,04,10,05,42,4.70
2020,04,10,05,43,4.70
2020,04,10,05,44,4.70
2020,04,10,05,45,4.70
2020,04,10,05,46,4.70
2020,04,10,05,47,4.70
2020,04,10,05,48,4.70
2020,04,10,05,49,4.70
2020,04,10,05,50,4.60
2020,04,10,05,51,4.60
2020,04,10,05,52,4.60
2020,04,10,05,53,4.60
2020,04,10,05,54,4.60
2020,04,10,05,55,4.60
2020,04,10,05,56,4.60
2020,04,10,05,57,4.60
2020,04,10,05,58,4.60
2020,04,10,05,59,4.60
2020,04,10,06,00,4.60
2020,04,10,06,01,4.60
2020,04,10,06,02,4.60
2020,04,10,07,09,4.70
2020,04,10,07,10,4.70
2020,04,10,07,11,4.70
2020,04,10,07,12,4.80
2020,04,10,07,13,4.80
2020,04,10,07,14,4.80
2020,04,10,07,15,4.80
2020,04,10,07,16,4.80
2020,04,10,07,17,4.80
2020,04,10,07,18,4.80
2020,04,10,07,19,4.80
2020,04,10,07,20,4.80
2020,04,10,07,21,4.80
2020,04,10,07,22,4.90
2020,04,10,07,23,4.90
2020,04,10,07,24,4.90
2020,04,10,07,25,4.90
2020,04,10,07,26,5.00
2020,04,10,07,27,5.10
2020,04,10,07,28,5.10
2020,04,10,07,29,5.10
2020,04,10,07,30,5.10
2020,04,10,07,31,5.10
2020,04,10,07,32,5.10
2020,04,10,07,33,5.20
2020,04,10,07,34,5.20
2020,04,10,07,35,5.20
2020,04,10,07,36,5.30
2020,04,10,07,37,5.30
2020,04,10,07,38,5.30
2020,04,10,07,39,5.30
2020,04,10,07,40,5.30
2020,04,10,07,41,5.30
2020,04,10,07,42,5.40
2020,04,10,07,43,5.40
2020,04,10,07,44,5.40
2020,04,10,07,45,5.50
2020,04,10,07,46,5.50
2020,04,10,07,47,5.60
2020,04,10,07,48,5.60
2020,04,10,07,49,5.60
2020,04,10,07,50,5.70
2020,04,10,07,51,5.70
2020,04,10,07,52,5.70
2020,04,10,07,53,5.80
2020,04,10,07,54,5.80
2020,04,10,07,55,5.90
2020,04,10,07,56,5.90
2020,04,10,07,57,6.00
2020,04,10,07,58,6.00
2020,04,10,07,59,6.00
2020,04,10,08,00,6.10
2020,04,10,08,01,6.20
2020,04,10,08,02,6.30
2020,04,10,08,03,6.40
2020,04,10,08,04,6.50
2020,04,10,08,05,6.60
2020,04,10,08,06,6.70
2020,04,10,08,07,6.80
2020,04,10,08,08,6.90
2020,04,10,08,09,7.00
2020,04,10,08,10,7.10
2020,04,10,08,11,7.30
2020,04,10,08,12,7.30
2020,04,10,08,13,7.50
2020,04,10,08,14,7.60
2020,04,10,08,15,7.80
2020,04,10,08,16,7.90
2020,04,10,08,17,8.00
2020,04,10,08,18,8.10
2020,04,10,08,19,8.30
2020,04,10,08,20,8.40
2020,04,10,08,21,8.50
2020,04,10,08,22,8.60
2020,04,10,08,23,8.70
2020,04,10,08,24,8.70
2020,04,10,08,25,8.80
2020,04,10,08,26,8.80
2020,04,10,08,27,8.80
2020,04,10,08,28,8.80
2020,04,10,08,29,8.80
2020,04,10,08,30,8.80
2020,04,10,08,31,8.70
2020,04,10,08,32,8.70
2020,04,10,08,33,8.70
2020,04,10,08,34,8.70
2020,04,10,08,35,8.70
2020,04,10,08,36,8.70
2020,04,10,08,37,8.80
2020,04,10,08,38,8.90
2020,04,10,08,39,8.90
2020,04,10,08,40,9.00
2020,04,10,08,41,9.10
2020,04,10,08,42,9.20
2020,04,10,08,43,9.20
2020,04,10,08,44,9.30
2020,04,10,08,45,9.40
2020,04,10,08,46,9.50
2020,04,10,08,47,9.50
2020,04,10,08,48,9.60
2020,04,10,08,49,9.60
2020,04,10,08,50,9.70
2020,04,10,08,51,9.70
2020,04,10,08,52,9.80
2020,04,10,08,53,9.90
2020,04,10,08,54,9.90
2020,04,10,08,55,10.00
2020,04,10,08,56,10.10
2020,04,10,08,57,10.20
2020,04,10,08,58,10.20
2020,04,10,08,59,10.30
2020,04,10,09,00,10.40
2020,04,10,09,01,10.40
2020,04,10,09,02,10.60
2020,04,10,09,03,10.60
2020,04,10,09,04,10.60
2020,04,10,09,05,10.60
2020,04,10,09,06,10.70
2020,04,10,09,07,10.70
2020,04,10,09,08,10.80
2020,04,10,09,09,10.90
2020,04,10,09,10,10.90
2020,04,10,09,11,11.10
2020,04,10,09,12,11.10
2020,04,10,09,13,11.20
2020,04,10,09,14,11.20
2020,04,10,09,15,11.20
2020,04,10,09,16,11.20
2020,04,10,09,17,11.20
2020,04,10,09,18,11.10
2020,04,10,09,19,11.10
2020,04,10,09,20,11.10
2020,04,10,09,21,11.20
2020,04,10,09,22,11.20
2020,04,10,09,23,11.20
2020,04,10,09,24,11.30
2020,04,10,09,25,11.30
2020,04,10,09,26,11.30
2020,04,10,09,27,11.40
2020,04,10,09,28,11.50
2020,04,10,09,29,11.60
2020,04,10,09,30,11.60
2020,04,10,09,31,11.70
2020,04,10,09,32,11.70
2020,04,10,09,33,11.80
2020,04,10,09,34,11.80
2020,04,10,09,35,11.80
2020,04,10,09,36,11.80
2020,04,10,09,37,11.80
2020,04,10,09,38,11.90
2020,04,10,09,39,12.00
2020,04,10,09,40,12.10
2020,04,10,09,41,12.20
2020,04,10,09,42,12.30
2020,04,10,09,43,12.30
2020,04,10,09,44,12.40
2020,04,10,09,45,12.40
2020,04,10,09,46,12.50
2020,04,10,09,47,12.50
2020,04,10,09,48,12.50
2020,04,10,09,49,12.50
2020,04,10,09,50,12.50
2020,04,10,09,51,12.50
2020,04,10,09,52,12.60
2020,04,10,09,53,12.60
2020,04,10,09,54,12.60
2020,04,10,09,55,12.60
2020,04,10,09,56,12.50
2020,04,10,09,57,12.30
2020,04,10,09,58,12.20
2020,04,10,09,59,12.10
2020,04,10,10,00,12.00
2020,04,10,10,01,12.00
2020,04,10,10,02,11.90
2020,04,10,10,03,11.90
2020,04,10,10,04,11.90
2020,04,10,10,05,11.90
2020,04,10,10,06,11.90
2020,04,10,10,07,11.90
2020,04,10,10,08,11.80
2020,04,10,10,09,11.80
2020,04,10,10,10,11.80
2020,04,10,10,11,11.90
2020,04,10,10,12,11.90
2020,04,10,10,13,11.90
2020,04,10,10,14,12.00
2020,04,10,10,15,12.10
2020,04,10,10,16,12.20
2020,04,10,10,17,12.30
2020,04,10,10,18,12.40
2020,04,10,10,19,12.50
2020,04,10,10,20,12.50
2020,04,10,10,21,12.60
2020,04,10,10,22,12.70
2020,04,10,10,23,12.80
2020,04,10,10,24,12.80
2020,04,10,10,25,12.80
2020,04,10,10,26,12.80
2020,04,10,10,27,12.80
2020,04,10,10,28,12.80
2020,04,10,10,29,12.80
2020,04,10,10,30,12.80
2020,04,10,10,31,12.80
2020,04,10,10,32,12.80
2020,04,10,10,33,12.80
2020,04,10,10,34,12.80
2020,04,10,10,35,12.80
2020,04,10,10,36,12.80
2020,04,10,10,37,12.80
2020,04,10,10,38,12.80
2020,04,10,10,39,12.90
2020,04,10,10,40,12.90
2020,04,10,10,41,12.90
2020,04,10,10,42,12.90
2020,04,10,10,43,13.00
2020,04,10,10,44,13.10
2020,04,10,10,45,13.20
2020,04,10,10,46,13.30
2020,04,10,10,47,13.30
2020,04,10,10,48,13.30
2020,04,10,10,49,13.40
2020,04,10,10,50,13.50
2020,04,10,10,51,13.60
2020,04,10,10,52,13.60
2020,04,10,10,53,13.60
2020,04,10,10,54,13.60
2020,04,10,10,55,13.60
2020,04,10,10,56,13.60
2020,04,10,10,57,13.60
2020,04,10,10,58,13.60
2020,04,10,10,59,13.50
2020,04,10,11,00,13.40
2020,04,10,11,01,13.40
2020,04,10,11,02,13.40
2020,04,10,11,03,13.50
2020,04,10,11,04,13.50
2020,04,10,11,05,13.50
2020,04,10,11,06,13.50
2020,04,10,11,07,13.40
2020,04,10,11,08,13.40
2020,04,10,11,09,13.40
2020,04,10,11,10,13.50
2020,04,10,11,11,13.50
2020,04,10,11,12,13.50
2020,04,10,11,13,13.60
2020,04,10,11,14,13.60
2020,04,10,11,15,13.60
2020,04,10,11,16,13.60
2020,04,10,11,17,13.60
2020,04,10,11,18,13.60
2020,04,10,11,19,13.60
2020,04,10,11,20,13.60
2020,04,10,11,21,13.70
2020,04,10,11,22,13.70
2020,04,10,11,23,13.80
2020,04,10,11,24,13.90
2020,04,10,11,25,14.00
2020,04,10,11,26,14.10
2020,04,10,11,27,14.20
2020,04,10,11,28,14.20
2020,04,10,11,29,14.20
2020,04,10,11,30,14.30
2020,04,10,11,31,14.30
2020,04,10,11,32,14.40
2020,04,10,11,33,14.50
2020,04,10,11,34,14.50
2020,04,10,11,35,14.50
2020,04,10,11,36,14.40
2020,04,10,11,37,14.30
2020,04,10,11,38,14.20
2020,04,10,11,39,14.20
2020,04,10,11,40,14.20
2020,04,10,11,41,14.20
2020,04,10,11,42,14.20
2020,04,10,11,43,14.20
2020,04,10,11,44,14.10
2020,04,10,11,45,14.10
2020,04,10,11,46,14.10
2020,04,10,11,47,14.20
2020,04,10,11,48,14.10
2020,04,10,11,49,14.10
2020,04,10,11,50,14.00
2020,04,10,11,51,14.00
2020,04,10,11,52,13.90
2020,04,10,11,53,14.00
2020,04,10,11,54,14.00
2020,04,10,11,55,14.00
2020,04,10,11,56,14.00
2020,04,10,11,57,14.00
2020,04,10,11,58,13.90
2020,04,10,11,59,13.80
2020,04,10,12,00,13.80
2020,04,10,12,01,13.90
2020,04,10,12,02,14.00
2020,04,10,12,03,14.10
2020,04,10,12,04,14.20
2020,04,10,12,05,14.20
2020,04,10,12,06,14.20
2020,04,10,12,07,14.30
2020,04,10,12,08,14.40
2020,04,10,12,09,14.40
2020,04,10,12,10,14.50
2020,04,10,12,11,14.50
2020,04,10,12,12,14.50
2020,04,10,12,13,14.60
2020,04,10,12,14,14.70
2020,04,10,12,15,14.80
2020,04,10,12,16,14.80
2020,04,10,12,17,14.90
2020,04,10,12,18,15.00
2020,04,10,12,19,15.00
2020,04,10,12,20,14.90
2020,04,10,12,21,14.80
2020,04,10,12,22,14.80
2020,04,10,12,23,14.80
2020,04,10,12,24,14.90
2020,04,10,12,25,14.90
2020,04,10,12,26,15.00
2020,04,10,12,27,15.00
2020,04,10,12,28,15.10
2020,04,10,12,29,15.10
2020,04,10,12,30,15.10
2020,04,10,12,31,15.10
2020,04,10,12,32,14.90
2020,04,10,12,33,14.80
2020,04,10,12,34,14.80
2020,04,10,12,35,14.70
2020,04,10,12,36,14.60
2020,04,10,12,37,14.40
2020,04,10,12,38,14.20
2020,04,10,12,39,14.20
2020,04,10,12,40,14.20
2020,04,10,12,41,14.20
2020,04,10,12,42,14.20
2020,04,10,12,43,14.10
2020,04,10,12,44,14.10
2020,04,10,12,45,14.10
2020,04,10,12,46,14.20
2020,04,10,12,47,14.30
2020,04,10,12,48,14.40
2020,04,10,12,49,14.50
2020,04,10,12,50,14.50
2020,04,10,12,51,14.50
2020,04,10,12,52,14.50
2020,04,10,12,53,14.50
2020,04,10,12,54,14.60
2020,04,10,12,55,14.50
2020,04,10,12,56,14.50
2020,04,10,12,57,14.60
2020,04,10,12,58,14.60
2020,04,10,12,59,14.60
2020,04,10,13,00,14.60
2020,04,10,13,01,14.60
2020,04,10,13,02,14.70
2020,04,10,13,03,14.70
2020,04,10,13,04,14.70
2020,04,10,13,05,14.80
2020,04,10,13,06,14.80
2020,04,10,13,07,14.80
2020,04,10,13,08,14.70
2020,04,10,13,09,14.60
2020,04,10,13,10,14.60
2020,04,10,13,11,14.50
2020,04,10,13,12,14.40
2020,04,10,13,13,14.30
2020,04,10,13,14,14.40
2020,04,10,13,15,14.30
2020,04,10,13,16,14.20
2020,04,10,13,17,14.00
2020,04,10,13,18,13.90
2020,04,10,13,19,13.90
2020,04,10,13,20,14.00
2020,04,10,13,21,14.00
2020,04,10,13,22,14.10
2020,04,10,13,23,14.20
2020,04,10,13,24,14.00
2020,04,10,13,25,14.00
2020,04,10,13,26,14.00
2020,04,10,13,27,14.10
2020,04,10,13,28,14.10
2020,04,10,13,29,14.10
2020,04,10,13,30,14.00
2020,04,10,13,31,13.80
2020,04,10,13,32,13.70
2020,04,10,13,33,13.60
2020,04,10,13,34,13.50
2020,04,10,13,35,13.40
2020,04,10,13,36,13.30
2020,04,10,13,37,13.30
2020,04,10,13,38,13.30
2020,04,10,13,39,13.50
2020,04,10,13,40,13.50
2020,04,10,13,41,13.50
2020,04,10,13,42,13.50
2020,04,10,13,43,13.50
2020,04,10,13,44,13.50
2020,04,10,13,45,13.40
2020,04,10,13,46,13.30
2020,04,10,13,47,13.20
2020,04,10,13,48,13.20
2020,04,10,13,49,13.30
2020,04,10,13,50,13.20
2020,04,10,13,51,13.20
2020,04,10,13,52,13.40
2020,04,10,13,53,13.60
2020,04,10,13,54,13.70
2020,04,10,13,55,13.70
2020,04,10,13,56,13.70
2020,04,10,13,57,13.60
2020,04,10,13,58,13.60
2020,04,10,13,59,13.50
2020,04,10,14,00,13.40
2020,04,10,14,01,13.40
2020,04,10,14,02,13.50
2020,04,10,14,03,13.50
2020,04,10,14,04,13.60
2020,04,10,14,05,13.60
2020,04,10,14,06,13.60
2020,04,10,14,07,13.60
2020,04,10,14,08,13.60
2020,04,10,14,09,13.60
2020,04,10,14,10,13.60
2020,04,10,14,11,13.50
2020,04,10,14,12,13.60
2020,04,10,14,13,13.70
2020,04,10,14,14,13.70
2020,04,10,14,15,13.70
2020,04,10,14,16,13.60
2020,04,10,14,17,13.50
2020,04,10,14,18,13.30
2020,04,10,14,19,13.30
2020,04,10,14,20,13.30
2020,04,10,14,21,13.30
2020,04,10,14,22,13.30
2020,04,10,14,23,13.20
2020,04,10,14,24,13.10
2020,04,10,14,25,13.10
2020,04,10,14,26,13.00
2020,04,10,14,27,12.90
2020,04,10,14,28,13.00
2020,04,10,14,29,12.90
2020,04,10,14,30,12.90
2020,04,10,14,31,12.90
2020,04,10,14,32,12.80
2020,04,10,14,33,12.80
2020,04,10,14,34,12.80
2020,04,10,14,35,12.80
2020,04,10,14,36,12.90
2020,04,10,14,37,13.00
2020,04,10,14,38,13.10
2020,04,10,14,39,13.20
2020,04,10,14,40,13.10
2020,04,10,14,41,13.10
2020,04,10,14,42,13.10
2020,04,10,14,43,12.90
2020,04,10,14,44,12.80
2020,04,10,14,45,12.80
2020,04,10,14,46,12.80
2020,04,10,14,47,12.90
2020,04,10,14,48,13.00
2020,04,10,14,49,13.10
2020,04,10,14,50,13.10
2020,04,10,14,51,13.20
2020,04,10,14,52,13.20
2020,04,10,14,53,13.40
2020,04,10,14,54,13.50
2020,04,10,14,55,13.60
2020,04,10,14,56,13.60
2020,04,10,14,57,13.60
2020,04,10,14,58,13.50
2020,04,10,14,59,13.50
2020,04,10,15,00,13.50
2020,04,10,15,01,13.50
2020,04,10,15,02,13.50
2020,04,10,15,03,13.60
2020,04,10,15,04,13.70
2020,04,10,15,05,13.70
2020,04,10,15,06,13.80
2020,04,10,15,07,14.00
2020,04,10,15,08,14.10
2020,04,10,15,09,14.20
2020,04,10,15,10,14.30
2020,04,10,15,11,14.50
2020,04,10,15,12,14.60
2020,04,10,15,13,14.70
2020,04,10,15,14,14.70
2020,04,10,15,15,14.80
2020,04,10,15,16,14.90
2020,04,10,15,17,15.00
2020,04,10,15,18,15.10
2020,04,10,15,19,15.10
2020,04,10,15,20,15.00
2020,04,10,15,21,15.00
2020,04,10,15,22,14.90
2020,04,10,15,23,15.00
2020,04,10,15,24,15.10
2020,04,10,15,25,15.00
2020,04,10,15,26,15.10
2020,04,10,15,27,15.10
2020,04,10,15,28,15.00
2020,04,10,15,29,14.90
2020,04,10,15,30,14.90
2020,04,10,15,31,14.90
2020,04,10,15,32,14.90
2020,04,10,15,33,14.90
2020,04,10,15,34,14.80
2020,04,10,15,35,14.80
2020,04,10,15,36,14.80
2020,04,10,15,37,14.80
2020,04,10,15,38,14.80
2020,04,10,15,39,14.70
2020,04,10,15,40,14.60
2020,04,10,15,41,14.50
2020,04,10,15,42,14.50
2020,04,10,15,43,14.50
2020,04,10,15,44,14.40
2020,04,10,15,45,14.40
2020,04,10,15,46,14.40
2020,04,10,15,47,14.40
2020,04,10,15,48,14.40
2020,04,10,15,49,14.40
2020,04,10,15,50,14.30
2020,04,10,15,51,14.40
2020,04,10,15,52,14.40
2020,04,10,15,53,14.40
2020,04,10,15,54,14.40
2020,04,10,15,55,14.30
2020,04,10,15,56,14.20
2020,04,10,15,57,14.10
2020,04,10,15,58,14.00
2020,04,10,15,59,13.90
2020,04,10,16,00,13.90
2020,04,10,16,01,13.90
2020,04,10,16,02,13.90
2020,04,10,16,03,14.00
2020,04,10,16,04,13.90
2020,04,10,16,05,13.90
2020,04,10,16,06,13.90
2020,04,10,16,07,13.90
2020,04,10,16,08,14.00
2020,04,10,16,09,14.00
2020,04,10,16,10,14.00
2020,04,10,16,11,14.10
2020,04,10,16,12,14.10
2020,04,10,16,13,14.20
2020,04,10,16,14,14.10
2020,04,10,16,15,14.10
2020,04,10,16,16,14.20
2020,04,10,16,17,14.20
2020,04,10,16,18,14.20
2020,04,10,16,19,14.20
2020,04,10,16,20,14.20
2020,04,10,16,21,14.10
2020,04,10,16,22,14.10
2020,04,10,16,23,14.10
2020,04,10,16,24,14.10
2020,04,10,16,25,14.10
2020,04,10,16,26,14.10
2020,04,10,16,27,14.20
2020,04,10,16,28,14.20
2020,04,10,16,29,14.20
2020,04,10,16,30,14.20
2020,04,10,16,31,14.20
2020,04,10,16,32,14.10
2020,04,10,16,33,14.10
2020,04,10,16,34,14.10
2020,04,10,16,35,14.20
2020,04,10,16,36,14.20
2020,04,10,16,37,14.20
2020,04,10,16,38,14.30
2020,04,10,16,39,14.30
2020,04,10,16,40,14.30
2020,04,10,16,41,14.30
2020,04,10,16,42,14.20
2020,04,10,16,43,14.20
2020,04,10,16,44,14.20
2020,04,10,16,45,14.20
2020,04,10,16,46,14.20
2020,04,10,16,47,14.10
2020,04,10,16,48,14.10
2020,04,10,16,49,14.10
2020,04,10,16,50,14.10
2020,04,10,16,51,14.00
2020,04,10,16,52,14.00
2020,04,10,16,53,14.00
2020,04,10,16,54,14.00
2020,04,10,16,55,14.00
2020,04,10,16,56,14.10
2020,04,10,16,57,14.00
2020,04,10,16,58,14.00
2020,04,10,16,59,14.00
2020,04,10,17,00,14.00
2020,04,10,17,01,14.00
2020,04,10,17,02,14.00
2020,04,10,17,03,14.00
2020,04,10,17,04,14.00
2020,04,10,17,05,14.00
2020,04,10,17,06,14.10
2020,04,10,17,07,14.10
2020,04,10,17,08,14.10
2020,04,10,17,09,14.10
2020,04,10,17,10,14.10
2020,04,10,17,11,14.10
2020,04,10,17,12,14.10
2020,04,10,17,13,14.00
2020,04,10,17,14,14.00
2020,04,10,17,15,13.90
2020,04,10,17,16,13.90
2020,04,10,17,17,13.90
2020,04,10,17,18,13.90
2020,04,10,17,19,13.90
2020,04,10,17,20,13.90
2020,04,10,17,21,13.80
2020,04,10,17,22,13.80
2020,04,10,17,23,13.70
2020,04,10,17,24,13.70
2020,04,10,17,25,13.70
2020,04,10,17,26,13.70
2020,04,10,17,27,13.60
2020,04,10,17,28,13.60
2020,04,10,17,29,13.60
2020,04,10,17,30,13.60
2020,04,10,17,31,13.60
2020,04,10,17,32,13.50
2020,04,10,17,33,13.50
2020,04,10,17,34,13.50
2020,04,10,17,35,13.50
2020,04,10,17,36,13.50
2020,04,10,17,37,13.50
2020,04,10,17,38,13.40
2020,04,10,17,39,13.40
2020,04,10,17,40,13.40
2020,04,10,17,41,13.40
2020,04,10,17,42,13.30
2020,04,10,17,43,13.30
2020,04,10,17,44,13.30
2020,04,10,17,45,13.30
2020,04,10,17,46,13.30
2020,04,10,17,47,13.30
2020,04,10,17,48,13.30
2020,04,10,17,49,13.20
2020,04,10,17,50,13.20
2020,04,10,17,51,13.20
2020,04,10,17,52,13.20
2020,04,10,17,53,13.20
2020,04,10,17,54,13.20
2020,04,10,17,55,13.20
2020,04,10,17,56,13.20
2020,04,10,17,57,13.20
2020,04,10,17,58,13.20
2020,04,10,17,59,13.30
2020,04,10,18,00,13.30
2020,04,10,18,01,13.30
2020,04,10,18,02,13.30
2020,04,10,18,03,13.30
2020,04,10,18,04,13.30
2020,04,10,18,05,13.30
2020,04,10,18,06,13.30
2020,04,10,18,07,13.30
2020,04,10,18,08,13.30
2020,04,10,18,09,13.30
2020,04,10,18,10,13.20
2020,04,10,18,11,13.10
2020,04,10,18,12,13.10
2020,04,10,18,13,13.00
2020,04,10,18,14,12.90
2020,04,10,18,15,12.90
2020,04,10,18,16,12.80
2020,04,10,18,17,12.80
2020,04,10,18,18,12.80
2020,04,10,18,19,12.70
2020,04,10,18,20,12.70
2020,04,10,18,21,12.60
2020,04,10,18,22,12.60
2020,04,10,18,23,12.60
2020,04,10,18,24,12.60
2020,04,10,18,25,12.60
2020,04,10,18,26,12.60
2020,04,10,18,27,12.60
2020,04,10,18,28,12.50
2020,04,10,18,29,12.50
2020,04,10,18,30,12.40
2020,04,10,18,31,12.40
2020,04,10,18,32,12.40
2020,04,10,18,33,12.30
2020,04,10,18,34,12.30
2020,04,10,18,35,12.30
2020,04,10,18,36,12.30
2020,04,10,18,37,12.30
2020,04,10,18,38,12.30
2020,04,10,18,39,12.30
2020,04,10,18,40,12.20
2020,04,10,18,41,12.20
2020,04,10,18,42,12.20
2020,04,10,18,43,12.20
2020,04,10,18,44,12.20
2020,04,10,18,45,12.10